Location: Macksville High School
(37.9611°N, 99.9654°W)
Time: 01:48:09
(UTC+00:00)

Lacrosse 4 Rocket - Pass Details

Date: 17 January 2021
Orbit: 536 x 621 km, 68.0° (Epoch: 07 March)

Event Time Altitude Azimuth Distance (km) Brightness Sun altitude
Rises 12:51:54 0° 174° (S) 2,714 5.2 -12.2°
Reaches altitude 10° 12:54:23 10° 160° (SSE) 1,839 4.5 -11.7°
Maximum altitude 12:57:39 23° 107° (ESE) 1,224 4.2 -11.1°
Drops below altitude 10° 13:01:01 10° 55° (NE) 1,891 4.6 -10.5°
Sets 13:03:36 0° 41° (NE) 2,813 5.2 -10.0°
